Total_Precipitation_Accumulation
0.10 0.24 0.62 0.89 0.93 0.90 0.86 0.83 0.79 0.72 0.70 0.76 0.86 0.93 0.96 0.91 0.89 0.88 0.90 0.92 0.88 0.91 1.00 1.12 1.12 1.10 1.05 0.98 0.85 0.77 0.76 0.76 0.79 0.75 0.81 0.89 0.92 0.86 0.77 0.69 0.55 0.62 0.93
0.09 0.24 0.58 0.77 0.86 0.91 0.89 0.84 0.77 0.67 0.67 0.73 0.82 0.88 0.95 0.95 0.92 0.94 0.94 0.99 0.94 0.96 1.03 1.14 1.15 1.11 1.11 0.95 0.80 0.67 0.63 0.58 0.58 0.56 0.55 0.58 0.78 0.86 0.80 0.77 0.71 0.93 1.06
0.09 0.23 0.48 0.70 0.82 0.90 0.89 0.82 0.75 0.70 0.70 0.77 0.84 0.85 0.88 0.95 0.99 1.04 1.06 1.04 0.99 0.95 0.94 1.01 1.09 1.09 1.02 0.91 0.77 0.65 0.59 0.52 0.45 0.42 0.42 0.39 0.64 0.95 0.93 0.89 0.86 1.09 1.08
0.11 0.21 0.38 0.66 0.80 0.87 0.88 0.85 0.84 0.85 0.84 0.90 0.94 0.91 0.88 0.94 1.03 1.10 1.05 1.04 1.02 0.97 0.91 0.91 0.93 0.95 0.81 0.70 0.71 0.69 0.63 0.53 0.39 0.33 0.24 0.28 0.58 1.00 1.07 0.98 0.93 0.99 1.04
0.15 0.23 0.44 0.71 0.86 0.90 0.94 0.91 0.89 0.93 0.98 1.00 1.01 1.02 1.01 1.05 1.07 1.12 1.12 1.11 1.05 0.99 0.93 0.89 0.83 0.81 0.76 0.70 0.70 0.70 0.66 0.52 0.37 0.27 0.17 0.23 0.49 0.96 0.99 0.96 0.88 0.92 0.95
0.22 0.29 0.50 0.75 0.91 0.96 1.01 0.99 0.99 1.02 1.05 1.08 1.05 1.05 1.09 1.19 1.20 1.14 1.12 1.18 1.16 1.02 0.94 0.91 0.84 0.82 0.75 0.71 0.72 0.74 0.70 0.58 0.38 0.23 0.19 0.22 0.36 0.73 0.91 1.03 1.01 0.98 0.93
0.31 0.37 0.55 0.81 0.98 1.07 1.13 1.15 1.19 1.22 1.22 1.20 1.15 1.10 1.09 1.13 1.21 1.16 1.07 1.08 1.05 0.99 0.94 0.91 0.84 0.83 0.81 0.75 0.72 0.74 0.78 0.63 0.40 0.37 0.33 0.31 0.42 0.72 0.89 1.05 1.10 1.05 1.09
0.38 0.46 0.67 0.97 1.10 1.16 1.22 1.20 1.29 1.36 1.39 1.37 1.28 1.19 1.17 1.16 1.17 1.16 1.06 1.03 1.02 0.97 0.90 0.85 0.84 0.78 0.77 0.75 0.73 0.73 0.76 0.59 0.44 0.46 0.52 0.50 0.61 0.83 0.91 0.99 1.08 1.10 1.18
0.41 0.54 0.75 1.00 1.16 1.32 1.34 1.27 1.29 1.32 1.39 1.38 1.31 1.23 1.19 1.15 1.14 1.12 1.11 1.04 1.02 1.04 0.97 0.84 0.80 0.81 0.72 0.69 0.68 0.66 0.64 0.57 0.55 0.63 0.60 0.71 0.78 0.98 1.06 1.03 1.05 1.13 1.20
0.52 0.66 0.84 1.02 1.14 1.29 1.38 1.33 1.27 1.27 1.33 1.41 1.37 1.28 1.23 1.22 1.22 1.15 1.06 1.10 1.07 1.02 1.01 0.90 0.82 0.87 0.83 0.71 0.65 0.61 0.56 0.52 0.49 0.55 0.69 0.71 0.84 1.17 1.29 1.16 1.05 1.05 1.15
0.70 0.84 0.96 1.07 1.18 1.32 1.41 1.37 1.38 1.36 1.39 1.46 1.44 1.40 1.34 1.31 1.32 1.24 1.08 1.08 1.13 1.10 1.02 0.98 0.89 0.89 0.88 0.74 0.64 0.61 0.55 0.44 0.45 0.56 0.63 0.67 0.85 1.19 1.43 1.29 1.15 1.04 1.07
0.74 0.91 1.03 1.11 1.24 1.44 1.53 1.55 1.63 1.52 1.43 1.45 1.36 1.35 1.39 1.38 1.44 1.35 1.29 1.18 1.17 1.19 1.16 1.11 1.02 0.96 0.90 0.77 0.67 0.61 0.48 0.38 0.37 0.38 0.44 0.59 0.75 1.04 1.41 1.44 1.33 1.23 1.19
0.75 0.92 1.09 1.20 1.34 1.54 1.58 1.59 1.62 1.63 1.50 1.49 1.45 1.35 1.36 1.45 1.42 1.46 1.43 1.45 1.41 1.34 1.31 1.27 1.20 1.06 0.96 0.88 0.79 0.68 0.53 0.47 0.43 0.36 0.36 0.48 0.58 0.84 1.14 1.33 1.49 1.49 1.48
0.84 0.98 1.14 1.31 1.49 1.66 1.70 1.73 1.66 1.59 1.52 1.42 1.48 1.47 1.43 1.39 1.30 1.24 1.26 1.24 1.28 1.28 1.31 1.31 1.22 1.10 1.05 0.99 0.89 0.77 0.69 0.61 0.52 0.48 0.43 0.46 0.50 0.71 1.02 1.21 1.38 1.57 1.71
0.89 1.01 1.14 1.31 1.47 1.70 1.93 1.92 1.90 1.78 1.63 1.53 1.51 1.52 1.46 1.40 1.32 1.21 1.14 1.18 1.16 1.14 1.17 1.20 1.12 1.02 0.99 0.94 0.91 0.86 0.82 0.70 0.60 0.58 0.54 0.53 0.51 0.59 0.85 1.10 1.29 1.54 1.79
0.93 1.07 1.21 1.35 1.45 1.65 1.90 2.00 2.00 1.94 1.87 1.80 1.66 1.58 1.53 1.50 1.41 1.31 1.20 1.17 1.16 1.13 1.14 1.13 1.09 1.00 0.93 0.84 0.79 0.78 0.84 0.81 0.73 0.67 0.59 0.56 0.54 0.55 0.71 0.95 1.21 1.47 1.76
1.01 1.14 1.31 1.45 1.58 1.66 1.78 2.03 2.10 2.10 2.05 1.99 1.81 1.76 1.78 1.68 1.59 1.52 1.40 1.27 1.17 1.15 1.18 1.20 1.15 1.12 1.01 0.87 0.77 0.73 0.73 0.74 0.75 0.71 0.63 0.58 0.58 0.58 0.66 0.84 1.06 1.31 1.61
1.13 1.21 1.43 1.57 1.71 1.75 1.75 1.99 2.11 2.13 2.22 2.22 2.14 2.00 1.95 1.94 1.86 1.78 1.67 1.53 1.40 1.29 1.23 1.23 1.17 1.13 1.07 0.96 0.85 0.76 0.71 0.69 0.66 0.64 0.60 0.59 0.61 0.62 0.67 0.78 0.89 1.15 1.42
1.10 1.29 1.55 1.65 1.73 1.84 1.84 1.93 2.15 2.17 2.18 2.26 2.36 2.32 2.23 2.17 2.08 2.02 1.91 1.79 1.71 1.58 1.42 1.31 1.25 1.15 1.07 1.00 0.96 0.90 0.80 0.73 0.69 0.67 0.60 0.55 0.53 0.56 0.61 0.69 0.77 0.93 1.16
1.13 1.34 1.61 1.81 1.88 1.96 2.03 1.99 2.12 2.27 2.16 2.07 2.16 2.25 2.32 2.41 2.35 2.27 2.15 1.99 1.94 1.85 1.71 1.54 1.41 1.28 1.15 1.06 1.05 1.04 0.94 0.86 0.78 0.70 0.64 0.60 0.55 0.54 0.58 0.63 0.65 0.72 0.91
1.19 1.33 1.55 1.78 1.91 1.96 2.01 1.95 1.86 1.99 2.09 1.97 1.86 1.98 2.17 2.34 2.50 2.53 2.36 2.24 2.16 2.03 1.81 1.68 1.64 1.55 1.38 1.24 1.22 1.24 1.11 0.96 0.92 0.80 0.68 0.61 0.58 0.54 0.55 0.62 0.66 0.65 0.75
1.15 1.25 1.45 1.71 1.86 1.84 1.81 1.85 1.82 1.83 1.91 1.99 1.92 1.90 1.98 2.20 2.43 2.66 2.58 2.41 2.30 2.22 2.11 1.89 1.75 1.73 1.66 1.45 1.32 1.36 1.38 1.30 1.08 0.89 0.77 0.65 0.61 0.59 0.58 0.59 0.65 0.67 0.68
1.12 1.21 1.26 1.51 1.82 1.88 1.88 1.98 2.01 2.06 2.07 2.05 1.95 1.89 1.93 2.02 2.16 2.27 2.37 2.28 2.29 2.26 2.21 2.09 1.91 1.82 1.85 1.70 1.43 1.48 1.55 1.39 1.10 0.94 0.84 0.75 0.67 0.63 0.61 0.59 0.62 0.66 0.69
1.06 1.28 1.33 1.41 1.67 1.90 1.93 1.94 1.92 1.94 1.92 1.90 1.83 1.74 1.83 2.02 2.10 2.13 2.20 2.22 2.08 2.03 2.00 2.01 1.99 1.88 1.91 1.91 1.68 1.41 1.29 1.22 1.27 1.15 0.93 0.85 0.84 0.77 0.69 0.63 0.61 0.67 0.70
1.11 1.31 1.44 1.50 1.56 1.76 1.84 1.80 1.81 1.80 1.80 1.87 1.86 1.78 1.73 1.87 2.07 2.17 2.15 2.18 2.20 2.05 1.88 1.83 1.89 1.92 1.90 1.86 1.75 1.55 1.33 1.12 1.07 1.22 1.08 0.93 0.96 0.94 0.88 0.80 0.74 0.74 0.75
1.20 1.38 1.50 1.59 1.52 1.60 1.82 1.81 1.69 1.66 1.67 1.76 1.84 1.90 1.85 1.80 1.87 2.01 2.11 2.08 2.08 2.11 2.04 1.86 1.80 1.86 1.85 1.80 1.73 1.63 1.52 1.40 1.19 1.17 1.12 0.91 0.89 0.89 0.93 0.98 0.95 0.92 0.90